[[{"header":{"parameterUnit":"m.s-1","parameterCategory":1,"la1":30.2991,"la2":30.254,"lo1":-89.0895,"lo2":-89.0444,"dy":0.0017,"dx":0.0017,"nx":28,"ny":28,"refTime":"2024-07-23T09:00:00:Z","depth":0,"parameterNumber":2,"parameterNumberName":"U-component_of_WINDS"},"data":[0,0,0,0,0,0,0,0,0,0,0,0,0,0,0,0,0,0,0,0,0,0,0,0,0,0,0,0,0,0,0,0,0,0,0,0,0,0,0,0,0,0,0,0,0,0,0,0,0,0,0,0,0,0,0,0,0,0,-1.3222,-1.3221,0,-1.3202,-1.3202,-1.3202,-1.3165,-1.3164,-1.3163,-1.3162,-1.3143,-1.3143,-1.3143,0,0,0,0,0,0,0,0,0,0,0,0,0,-1.3228,-1.3228,-1.3222,-1.3221,-1.3221,-1.3202,-1.3202,-1.3202,-1.3165,-1.3164,-1.3163,-1.3162,-1.3143,-1.3143,-1.3143,0,0,0,0,0,0,0,0,0,0,0,0,0,-1.3218,-1.3228,-1.3222,-1.32,-1.3198,-1.3202,-1.3202,-1.3202,-1.3165,-1.3164,-1.3163,-1.3162,-1.3143,-1.3143,-1.3143,-1.3167,0,0,-1.3144,-1.3144,0,0,0,0,0,0,0,0,-1.3219,-1.3218,-1.3204,-1.3202,-1.3199,-1.3185,-1.3197,-1.319,-1.3165,-1.3178,-1.3162,-1.3161,-1.3158,-1.3157,-1.3156,-1.3166,-1.3165,-1.3144,-1.3144,-1.3144,-1.3145,0,0,0,0,0,0,0,-1.322,-1.3219,-1.3214,-1.3204,-1.3201,-1.3192,-1.319,-1.3196,-1.3174,-1.3176,-1.3174,-1.3172,-1.3156,-1.3155,-1.3155,-1.3165,-1.3144,-1.3144,-1.3145,-1.3145,-1.3194,-1.3195,0,0,0,0,0,0,-1.3223,-1.322,-1.3215,-1.3213,-1.3207,-1.3193,-1.319,-1.3191,-1.3174,-1.317,-1.3173,-1.317,-1.3156,-1.3155,-1.3154,-1.318,-1.3144,-1.3145,-1.3145,-1.3193,-1.3194,-1.3195,0,0,0,0,0,0,-1.3224,-1.3223,-1.3215,-1.3216,-1.3214,-1.3194,-1.3195,-1.3191,-1.319,-1.3171,-1.3167,-1.3176,-1.3155,-1.3154,-1.3164,-1.3179,-1.3145,-1.3145,-1.3191,-1.3193,-1.3195,-1.3233,0,0,0,0,0,0,-1.3224,-1.3224,-1.3232,-1.3216,-1.3214,-1.3225,-1.3196,-1.3191,-1.319,-1.3186,-1.3173,-1.3169,-1.3154,-1.3164,-1.3164,-1.3179,-1.3145,-1.319,-1.3192,-1.3194,-1.323,-1.3235,-1.324,0,0,0,0,0,-1.3224,-1.3243,-1.3232,-1.3232,-1.3224,-1.3226,-1.3225,-1.3206,-1.3191,-1.32,-1.3188,-1.317,-1.3178,-1.3165,-1.3165,-1.318,-1.3189,-1.3192,-1.3194,-1.3228,-1.3234,-1.324,0,0,0,0,0,0,-1.3261,-1.3241,-1.3228,-1.3243,-1.3237,-1.322,-1.323,-1.3214,-1.3212,-1.3209,-1.3186,-1.3183,-1.3197,-1.319,-1.3176,-1.3202,-1.318,-1.3183,-1.3206,-1.3212,-1.3217,-1.3218,-1.3145,0,0,0,0,0,-1.3271,-1.3274,-1.3256,-1.3271,-1.3268,-1.325,-1.325,-1.3236,-1.3229,-1.3226,-1.3215,-1.3209,-1.321,-1.3211,-1.3211,-1.3229,-1.3226,-1.324,-1.3245,-1.3249,-1.3251,-1.3261,-1.3267,-1.3204,-1.3204,-1.3204,0,0,-1.3291,-1.328,-1.3283,-1.3278,-1.3271,-1.3275,-1.3248,-1.3253,-1.3256,-1.3227,-1.3235,-1.3228,-1.3219,-1.3234,-1.324,-1.3228,-1.3268,-1.3252,-1.3256,-1.3256,-1.3264,-1.327,-1.3275,-1.3206,-1.3205,-1.3205,0,0,-1.3329,-1.3322,-1.3333,-1.3327,-1.3318,-1.3305,-1.3308,-1.3294,-1.3288,-1.3297,-1.3275,-1.3279,-1.3281,-1.3276,-1.3273,-1.3312,-1.3295,-1.3313,-1.3339,-1.3348,-1.3353,-1.3357,-1.337,-1.3375,-1.3315,-1.3315,-1.3315,0,-1.3355,-1.336,-1.3341,-1.3347,-1.3346,-1.332,-1.3331,-1.3327,-1.3318,-1.3318,-1.3305,-1.3308,-1.3301,-1.3314,-1.3323,-1.3322,-1.3325,-1.3313,-1.3354,-1.3358,-1.3362,-1.3374,-1.3379,-1.3317,-1.3317,-1.3317,-1.3317,0,-1.3392,-1.3396,-1.3407,-1.3399,-1.3398,-1.3407,-1.339,-1.3392,-1.3379,-1.3368,-1.3378,-1.3368,-1.3366,-1.3368,-1.3356,-1.338,-1.3373,-1.3358,-1.3335,-1.337,-1.3381,-1.3386,-1.332,-1.332,-1.3319,-1.3318,0,0,-1.3451,-1.3434,-1.3438,-1.3434,-1.3422,-1.3425,-1.3434,-1.3431,-1.3433,-1.3429,-1.3435,-1.3439,-1.3424,-1.3422,-1.3409,-1.3417,-1.3448,-1.3401,-1.34,-1.3409,-1.3474,-1.3485,-1.349,-1.3438,-1.3438,-1.3439,-1.3474,0,-1.3486,-1.3499,-1.3483,-1.3499,-1.3502,-1.3479,-1.3487,-1.3481,-1.3472,-1.3474,-1.3464,-1.3466,-1.3447,-1.3446,-1.3453,-1.3443,-1.3461,-1.344,-1.3443,-1.3443,-1.3444,-1.3496,-1.3508,-1.3541,-1.3479,-1.3479,-1.348,0,-1.3528,-1.3526,-1.3543,-1.3531,-1.3531,-1.3538,-1.3535,-1.3537,-1.3531,-1.3523,-1.3522,-1.3506,-1.3514,-1.3493,-1.3504,-1.3491,-1.3491,-1.3486,-1.3487,-1.3486,-1.3463,-1.3495,-1.3552,-1.3556,-1.3487,-1.3486,-1.3486,0,-1.3569,-1.357,-1.358,-1.3578,-1.3564,-1.357,-1.3564,-1.3556,-1.3556,-1.3554,-1.3554,-1.3553,-1.3552,-1.3552,-1.3537,-1.3523,-1.3549,-1.3527,-1.3543,-1.3544,-1.3548,-1.3548,-1.3605,-1.3551,-1.3551,-1.3551,-1.3551,0,-1.3609,-1.362,-1.3598,-1.3604,-1.3616,-1.3598,-1.361,-1.3603,-1.3596,-1.3601,-1.3581,-1.3586,-1.3566,-1.3569,-1.3558,-1.3568,-1.3568,-1.3563,-1.3559,-1.3564,-1.3564,-1.3563,-1.356,-1.3552,-1.3552,-1.3552,-1.3551,0,-1.3656,-1.3641,-1.3651,-1.3638,-1.3635,-1.3644,-1.3633,-1.3638,-1.3628,-1.3635,-1.3635,-1.362,-1.3622,-1.3607,-1.3607,-1.36,-1.3615,-1.3609,-1.3618,-1.3615,-1.3631,-1.363,-1.3688,-1.3694,-1.3638,-1.3638,-1.3639,0,-1.3682,-1.3689,-1.3677,-1.3679,-1.3675,-1.3678,-1.3677,-1.366,-1.3661,-1.3655,-1.3661,-1.3662,-1.3661,-1.3667,-1.3656,-1.3656,-1.3648,-1.3669,-1.3648,-1.3652,-1.3647,-1.3647,-1.3647,-1.3672,-1.3673,-1.3674,-1.3674,0,-1.3729,-1.3722,-1.3722,-1.3721,-1.3721,-1.3719,-1.3716,-1.3718,-1.37,-1.3702,-1.3704,-1.3704,-1.3704,-1.3705,-1.3703,-1.3698,-1.3683,-1.3681,-1.3685,-1.3689,-1.3693,-1.369,-1.3628,-1.3679,-1.3679,-1.3679,-1.3678,-1.3678,-1.3765,-1.3771,-1.3764,-1.3765,-1.3761,-1.3759,-1.3763,-1.3754,-1.3756,-1.3754,-1.3744,-1.3748,-1.3742,-1.3738,-1.3735,-1.3738,-1.3728,-1.3734,-1.3735,-1.3736,-1.3739,-1.3694,-1.3738,-1.3738,-1.3737,-1.3737,-1.3737,0,-1.3811,-1.3805,-1.3807,-1.3803,-1.3804,-1.3791,-1.3786,-1.3788,-1.3792,-1.3788,-1.3788,-1.3791,-1.3792,-1.3782,-1.3782,-1.3787,-1.378,-1.3787,-1.3786,-1.3785,-1.3748,-1.3744,-1.3793,-1.3793,-1.3793,-1.3793,-1.3793,-1.3793,-1.3835,-1.3844,-1.3836,-1.3844,-1.3838,-1.3842,-1.3841,-1.3839,-1.3835,-1.3839,-1.384,-1.3833,-1.3827,-1.3826,-1.3827,-1.3824,-1.3825,-1.3834,-1.3829,-1.3793,-1.3788,-1.3783,-1.3779,-1.3835,-1.3835,-1.3866,-1.3867,-1.3867]},{"header":{"parameterUnit":"m.s-1","parameterCategory":1,"la1":30.2991,"la2":30.254,"lo1":-89.0895,"lo2":-89.0444,"dy":0.0017,"dx":0.0017,"nx":28,"ny":28,"refTime":"2024-07-23T09:00:00:Z","depth":0,"parameterNumber":3,"parameterNumberName":"V-component_of_WINDS"},"data":[0,0,0,0,0,0,0,0,0,0,0,0,0,0,0,0,0,0,0,0,0,0,0,0,0,0,0,0,0,0,0,0,0,0,0,0,0,0,0,0,0,0,0,0,0,0,0,0,0,0,0,0,0,0,0,0,0,0,3.2407,3.2406,0,3.2379,3.2379,3.2379,3.2415,3.2417,3.2418,3.2419,3.2387,3.2385,3.2383,0,0,0,0,0,0,0,0,0,0,0,0,0,3.2487,3.2486,3.2407,3.2406,3.2406,3.2379,3.2379,3.2379,3.2415,3.2417,3.2418,3.242,3.2387,3.2385,3.2382,0,0,0,0,0,0,0,0,0,0,0,0,0,3.2455,3.2485,3.2407,3.2421,3.2422,3.238,3.2379,3.2379,3.2415,3.2417,3.2419,3.2421,3.2388,3.2385,3.2382,3.2322,0,0,3.2372,3.2371,0,0,0,0,0,0,0,0,3.2457,3.2452,3.2419,3.242,3.2421,3.2403,3.2396,3.236,3.2414,3.2417,3.2419,3.2422,3.239,3.2387,3.2377,3.2321,3.232,3.2372,3.237,3.2369,3.2368,0,0,0,0,0,0,0,3.2459,3.2454,3.2396,3.2419,3.242,3.2428,3.2426,3.2389,3.2393,3.2417,3.242,3.2417,3.2391,3.238,3.2377,3.2319,3.2372,3.2369,3.2367,3.2366,3.2214,3.2212,0,0,0,0,0,0,3.246,3.2455,3.2397,3.2395,3.2445,3.2425,3.2422,3.2407,3.2393,3.2393,3.2415,3.2418,3.2385,3.238,3.2376,3.2306,3.2369,3.2366,3.2364,3.2216,3.2213,3.2211,0,0,0,0,0,0,3.2462,3.2455,3.2398,3.2426,3.2419,3.2421,3.2404,3.2405,3.2395,3.2392,3.2392,3.2403,3.2386,3.238,3.2336,3.2305,3.2364,3.2362,3.2219,3.2215,3.2212,3.2166,0,0,0,0,0,0,3.2464,3.2455,3.2433,3.2425,3.2418,3.2359,3.2402,3.2403,3.2389,3.2394,3.2381,3.2381,3.2387,3.2341,3.2333,3.2302,3.2359,3.2221,3.2217,3.2213,3.217,3.2161,3.2154,0,0,0,0,0,3.2467,3.242,3.2432,3.2424,3.239,3.2357,3.2353,3.2363,3.2387,3.2364,3.2363,3.2381,3.231,3.2336,3.2327,3.2295,3.2223,3.2218,3.2214,3.2173,3.2163,3.2154,0,0,0,0,0,0,3.2422,3.2419,3.2432,3.2381,3.237,3.2364,3.2336,3.2351,3.2331,3.2336,3.2348,3.2344,3.2298,3.2292,3.2321,3.2238,3.2271,3.2264,3.2243,3.2233,3.2225,3.2227,3.2356,0,0,0,0,0,3.2406,3.2381,3.2379,3.2334,3.2328,3.2333,3.2319,3.2328,3.2316,3.231,3.2305,3.2291,3.2267,3.2249,3.2226,3.217,3.2167,3.2143,3.2135,3.2129,3.2123,3.2093,3.2083,3.2195,3.2195,3.2195,0,0,3.2373,3.2369,3.2351,3.2325,3.2317,3.229,3.2328,3.2297,3.2277,3.2305,3.2264,3.226,3.2245,3.2195,3.2173,3.2189,3.2091,3.2123,3.2117,3.2115,3.2087,3.2077,3.2067,3.2192,3.2193,3.2193,0,0,3.2299,3.2293,3.2256,3.2248,3.2236,3.224,3.2231,3.2223,3.2222,3.2181,3.2202,3.2178,3.2134,3.2123,3.2112,3.2036,3.2052,3.2028,3.1986,3.1957,3.1948,3.194,3.1914,3.1904,3.2022,3.2022,3.2022,0,3.2259,3.222,3.2234,3.2203,3.2191,3.2217,3.2179,3.217,3.215,3.2141,3.216,3.2107,3.2099,3.2047,3.2029,3.2019,3.2009,3.2029,3.1949,3.1941,3.1934,3.1909,3.1898,3.2019,3.2019,3.202,3.202,0,3.2172,3.2145,3.2116,3.2099,3.2083,3.2049,3.2057,3.204,3.205,3.2052,3.201,3.2002,3.1978,3.1967,3.1976,3.1916,3.1927,3.1947,3.198,3.192,3.1897,3.1887,3.2015,3.2016,3.2017,3.2018,0,0,3.2067,3.206,3.2049,3.2042,3.2032,3.2011,3.1978,3.1956,3.1941,3.1927,3.1899,3.1863,3.1882,3.1869,3.1878,3.1853,3.1794,3.1876,3.1876,3.1861,3.1729,3.1714,3.1702,3.1805,3.1803,3.1802,3.173,0,3.1994,3.1938,3.195,3.1895,3.187,3.1896,3.1867,3.1857,3.1858,3.1836,3.1837,3.1811,3.1838,3.1831,3.1807,3.1806,3.1768,3.1812,3.1779,3.1777,3.1782,3.169,3.1674,3.1606,3.1721,3.1719,3.1718,0,3.19,3.1885,3.1828,3.1824,3.1814,3.1787,3.1769,3.1749,3.1738,3.1741,3.1728,3.1742,3.1708,3.1742,3.1696,3.1726,3.1714,3.1711,3.1709,3.1706,3.1744,3.1684,3.1585,3.1575,3.1704,3.1705,3.1706,0,3.183,3.1795,3.1757,3.175,3.1744,3.1725,3.1721,3.1713,3.17,3.1684,3.1676,3.1655,3.1644,3.1627,3.1635,3.1659,3.1588,3.1622,3.1588,3.1588,3.1571,3.1572,3.1468,3.1563,3.1564,3.1564,3.1564,0,3.1747,3.1711,3.1726,3.1702,3.1663,3.1677,3.1637,3.1636,3.1629,3.1605,3.1626,3.1602,3.1614,3.1592,3.1598,3.1559,3.1554,3.1554,3.1556,3.1552,3.1552,3.1544,3.1549,3.1561,3.1562,3.1562,3.1563,0,3.1661,3.167,3.163,3.1628,3.1627,3.1598,3.1596,3.1574,3.1577,3.1547,3.1541,3.1545,3.152,3.1527,3.1499,3.1503,3.1454,3.1462,3.1458,3.146,3.1426,3.1429,3.1313,3.1298,3.1402,3.1401,3.1401,0,3.1608,3.1581,3.1577,3.1564,3.1559,3.1536,3.1524,3.1537,3.1523,3.1511,3.149,3.1467,3.1449,3.1408,3.1408,3.1387,3.1395,3.1356,3.1392,3.1389,3.1395,3.1396,3.1394,3.1348,3.1347,3.1346,3.1345,0,3.1511,3.1518,3.1499,3.1483,3.1468,3.1455,3.1444,3.1432,3.1445,3.1427,3.1403,3.139,3.1363,3.134,3.1321,3.1316,3.1332,3.1334,3.1325,3.1321,3.132,3.1321,3.1439,3.1336,3.1337,3.1338,3.1338,3.1339,3.144,3.1418,3.1413,3.1392,3.1386,3.1376,3.1355,3.1357,3.1338,3.1318,3.1327,3.1299,3.129,3.1267,3.126,3.1238,3.1253,3.124,3.1237,3.1233,3.1229,3.1324,3.1235,3.1235,3.1235,3.1235,3.1236,0,3.1345,3.1344,3.1325,3.131,3.1294,3.1313,3.1302,3.1287,3.1263,3.1254,3.1238,3.121,3.1189,3.1188,3.1168,3.115,3.1157,3.1144,3.1146,3.1145,3.1217,3.1227,3.1139,3.1139,3.1139,3.1139,3.1139,3.1139,3.1294,3.1259,3.1264,3.1226,3.1224,3.1198,3.1191,3.1181,3.1175,3.1144,3.1127,3.1127,3.1122,3.1102,3.1083,3.1083,3.1075,3.1059,3.1062,3.113,3.1139,3.1148,3.1158,3.1057,3.1057,3.0992,3.0991,3.0991]}]]